Location: Rio Negrinho
(26.2394°S, 49.4999°W)
Time: 01:05:00
(UTC+00:00)

Okean-O - Pass Details

Date: 07 June 2020
Orbit: 638 x 641 km, 98.2° (Epoch: 13 July)

Event Time Altitude Azimuth Distance (km) Brightness Sun altitude
Rises 09:09:44 0° 33° (NNE) 2,929 7.0 -11.4°
Reaches altitude 10° 09:12:05 10° 43° (NE) 2,028 6.3 -10.9°
Maximum altitude 09:16:03 33° 106° (ESE) 1,084 4.4 -10.1°
Drops below altitude 10° 09:20:03 10° 170° (S) 2,051 5.1 -9.2°
Sets 09:22:26 0° 179° (S) 2,967 5.8 -8.7°
